Regional Weather Roundup
Issued by NWS

Home | Current Version | Previous Version | Text Only | Print | Product List | Glossary On
Versions: 1 2 3 4 5 6 7 8 9 10 11 12 13 14 15 16 17 18 19 20 21 22 23 24 25 26 27 28 29 30 31 32 33 34 35 36 37 38 39 40 41 42 43 44 45 46 47 48 49 50
000
ASUS44 KLIX 070411
RWRLA
LOUISIANA WEATHER ROUNDUP
NATIONAL WEATHER SERVICE NEW ORLEANS LA
1100 PM CDT MON JUL 06 2015

NOTE: "FAIR" INDICATES FEW OR NO CLOUDS BELOW 12,000 FEET WITH NO
      SIGNIFICANT WEATHER AND/OR OBSTRUCTIONS TO VISIBILITY.
      SKY/WX - SKY CONDITION AND SIGNIFICANT WEATHER.
      TMP - AIR TEMPERATURE.    DP   - DEWPOINT TEMPERATURE.
      RH  - RELATIVE HUMIDITY.  PRES - PRESSURE.
      HX  - HEAT INDEX.         WCI  - WIND CHILL INDEX.

*  THESE STATIONS ARE NOT NWS OR FAA STATIONS AND ARE NOT UNDER
   NWS QUALITY CONTROL.

LAZ040-048-061>063-065-066-069-070500-
SOUTHEAST LOUISIANA

CITY           SKY/WX    TMP DP  RH WIND       PRES   REMARKS
N.O. AUDUBON     N/A     84  79  85 MISG        N/A  HX  96
N.O. INTL ARPT PTCLDY    82  75  79 S3        30.09R
N.O. LAKEFRONT CLEAR     85  76  74 S10       30.09R
N.O. DOWNTOWN* FAIR      86  75  70 S6        30.10R HX  95
RESERVE*       NOT AVBL
SLIDELL        PTCLDY    82  80  94 CALM      30.09R
BATON ROUGE    CLEAR     81  74  79 SE5       30.08R
BOOTHVILLE     CLEAR     83  78  85 SE6       30.10R
BELLE CHASSE   PTCLDY    82  76  81 S3        30.09R
BOGALUSA*        N/A     82  75  81 S5        30.10R
GALLIANO*      PTCLDY    83  76  79 MISG      30.09R
NEW ROADS*     FAIR     N/A N/A N/A S5        30.08R
GONZALES*      FAIR      79  79  99 CALM      30.08R
HAMMOND*       CLEAR     81  75  83 CALM      30.11R
HOUMA*         PTCLDY    81  76  87 S3        30.08R
PORT FOURCHON* MOCLDY    86  77  74 S10       30.09R HX  97

$$

LAZ041-044-053-054-070500-
SOUTHWEST LOUISIANA

CITY           SKY/WX    TMP DP  RH WIND       PRES   REMARKS
LAKE CHARLES   PTCLDY    82  76  81 S5        30.04R
LAFAYETTE      PTCLDY    81  76  84 CALM      30.06R
PATTERSON      CLEAR     79  75  89 CALM      30.09R
SALT POINT       N/A     84  77  79 VRB3      30.05R
NEW IBERIA     NOT AVBL
CHENAULT AIRPK PTCLDY    78  76  95 SE6       30.05R

$$

LAZ027-028-070500-
CENTRAL LOUISIANA

CITY           SKY/WX    TMP DP  RH WIND       PRES   REMARKS
FORT POLK      PTCLDY    80  75  85 S8        30.05R
ALEXANDRIA INT PTCLDY    78  74  87 SE5       30.05R
ALEXANDRIA     PTCLDY    79  74  84 CALM      30.07R

$$

LAZ001-002-070500-
NORTHWEST LOUISIANA

CITY           SKY/WX    TMP DP  RH WIND       PRES   REMARKS
SHREVEPORT     MOCLDY    81  71  71 S9        30.02R
BARKSDALE AFB  PTCLDY    82  71  70 S12       30.02R
DTN SHREVEPORT PTCLDY    82  70  66 S10       30.01R

$$

LAZ014-016-070500-
NORTHEAST LOUISIANA

CITY           SKY/WX    TMP DP  RH WIND       PRES   REMARKS
MONROE         PTCLDY    80  75  84 S5        30.06R
TALLULAH       CLEAR     77  74  90 S3        30.06R

$$



USA.gov is the U.S. government's official web portal to all federal, state and local government web resources and services.